Regional Weather Roundup
Issued by NWS

Home | Current Version | Previous Version | Text Only | Print | Product List | Glossary Off
Versions: 1 2 3 4 5 6 7 8 9 10 11 12 13 14 15 16 17 18 19 20 21 22 23 24 25 26 27 28 29 30 31 32 33 34 35 36 37 38 39 40 41 42 43 44 45 46 47 48 49 50

595
ASUS45 KBOU 240910
RWRCO

WEATHER ROUNDUP FOR COLORADO
NATIONAL WEATHER SERVICE DENVER/BOULDER CO
300 AM MDT SAT SEP 24 2016

NOTE: "FAIR" INDICATES FEW OR NO CLOUDS BELOW 12000 FEET WITH NO
SIGNIFICANT WEATHER AND/OR OBSTRUCTIONS TO VISIBILITY.

COZ001>005-013-030-031-241000-
...NORTHWEST COLORADO...

CITY           SKY/WX    TMP DP  RH WIND       PRES   REMARKS
CRAIG          CLOUDY    42  36  79 CALM      30.06F
HAYDEN         CLOUDY    37  34  87 NE6       30.07F
MEEKER         CLOUDY    42  36  79 SW6       30.07F
MOUNT WERNER   NOT AVBL
STEAMBOAT SPGS CLOUDY    38  36  93 E3        30.07F
WALDEN           N/A     34  30  86 S14       30.09S WCI  24
$$

COZ006>008-011-241000-
...WEST CENTRAL VALLEYS...

CITY           SKY/WX    TMP DP  RH WIND       PRES   REMARKS
GRAND JUNCTION CLOUDY    46  43  89 NE6       30.07F
MONTROSE       CLOUDY    43  37  79 NW5       30.13R
EAGLE          FAIR      36  34  93 E3        30.11F
RIFLE          CLOUDY    44  42  93 CALM      30.10S
DELTA          CLOUDY    48  40  74 NE9       30.11F
NUCLA          CLOUDY    45  34  65 CALM      30.16S
$$

COZ017>023-064>068-241000-
...SOUTHWEST COLORADO...

CITY           SKY/WX    TMP DP  RH WIND       PRES   REMARKS
DURANGO        FAIR      33  30  88 NW5       30.18S WCI  29
CORTEZ         CLOUDY    42  38  85 E5        30.15R
PAGOSA SPRINGS FAIR      31  31  99 CALM      30.21S
TELLURIDE      CLOUDY    36  25  66 CALM      30.22S
WOLF CREEK PAS FAIR      21  21 100 MISG      30.29S
$$

COZ009-010-012-014-032>034-037-058>063-241000-
...CENTRAL COLORADO...

CITY           SKY/WX    TMP DP  RH WIND       PRES   REMARKS
ASPEN          CLOUDY    34  32  92 CALM      30.12R
BUENA VISTA    MOCLDY    36  27  69 CALM      30.17R
COPPER MTN     MOCLDY    28  18  64 MISG      30.19R
BERTHOUD PASS  MOCLDY    18   5  57 N24G33    30.12S WCI   0
COTTONWOOD PAS FAIR      36  19  51 SW6       30.20R
GUNNISON       CLOUDY    30  28  93 N7        30.19F WCI  23
KREMMLING      FAIR      34  28  80 CALM      30.08F
LEADVILLE      FAIR      26  18  71 S7        30.16R WCI  18
MONARCH PASS     N/A     21  19  93 SW25      30.34S WCI   4
SALIDA         FAIR      40  30  68 SW7       30.24S
SUNLIGHT       FLURRIES  30  30 100 MISG      30.20S
WILKERSON PASS FAIR      23  21  93 SW15G23   30.19S WCI  10
$$

COZ069>075-241000-
...SAN LUIS VALLEY/SANGRE DE CRISTO MOUNTAINS...

CITY           SKY/WX    TMP DP  RH WIND       PRES   REMARKS
ALAMOSA        FAIR      28  27  96 W6        30.18F WCI  22
LA VETA PASS   NOT AVBL
SAGUACHE       NOT AVBL
$$

COZ035-036-038>040-241000-
...NORTHERN COLORADO FRONT RANGE...

CITY           SKY/WX    TMP DP  RH WIND       PRES   REMARKS
DENVER INTL AP FAIR      44  38  79 E17       29.98S
DMNS CITY PARK   N/A     48  36  63 E16G22    29.99R
AURORA         PTCLDY    44  36  73 E9        30.01R
FRONT RANGE AP FAIR      43  37  81 E12       30.00S
ERIE MUNI ARPT FAIR      46  40  79 E16G22    29.96S
BOULDER MUN AP FAIR      45  39  81 NE6       29.97R
CENTENNIAL     FAIR      47  21  35 S5        30.01R
BROOMFIELD     FAIR      52  23  32 W10G17    29.98R
FORT COLLINS   FAIR      43  36  75 SE3       29.97S
LONGMONT       FAIR      47  42  81 SE8       29.98F
$$

COZ041-046-047-076>085-087-088-241000-
...PIKES PEAK/PALMER DIVIDE AND SOUTHERN FOOTHILLS...

CITY           SKY/WX    TMP DP  RH WIND       PRES   REMARKS
COLO. SPRINGS  FAIR      48  20  32 NW7       30.01F
A. F. ACADEMY  FAIR      48  18  29 N15G21    30.03S
SCHRIEVER AFB  NOT AVBL
ELLICOTT       FAIR     N/A N/A N/A S3        30.01F
FALCON         FAIR      47  17  30 NW21G30   30.02F
FORT CARSON    FAIR      52  18  26 W20       29.96F
LIMON          FAIR      42  36  79 N8        30.00R
MONUMENT HILL  FAIR      43  19  39 W13G24    30.05F
TRINIDAD       FAIR      47  24  40 NW5       30.02S
$$

COZ042>045-048>051-090-091-241000-
...NORTHEAST COLORADO...

CITY           SKY/WX    TMP DP  RH WIND       PRES   REMARKS
GREELEY ARPT   FAIR      46  39  76 NE5       29.97R
AKRON          FAIR      46  36  68 N23G32    29.96F
BURLINGTON     FAIR      51  40  65 W22       29.95R
WRAY           NOT AVBL
STERLING       CLOUDY    50  37  62 NW31G38   29.96R
HOLYOKE        CLOUDY    54  48  82 NW15G21   29.94S
FORT MORGAN    FAIR      45  36  70 N15G23    29.96F
$$

COZ086-089-092>099-241000-
...SOUTHEAST COLORADO...

CITY           SKY/WX    TMP DP  RH WIND       PRES   REMARKS
PUEBLO         FAIR      55  24  30 NW13      29.98S
LA JUNTA       FAIR      49  27  42 NW9       29.96F
LAMAR          FAIR      49  38  65 CALM      29.95R
SPRINGFIELD    NOT AVBL
$$




USA.gov is the U.S. government's official web portal to all federal, state and local government web resources and services.